Location: Beadle
(51.4667°N, 109.0000°W)
Time: 11:34:44
(UTC+00:00)

Envisat - Pass Details

Date: 21 January 2022
Orbit: 764 x 765 km, 98.2° (Epoch: 22 May)

Event Time Altitude Azimuth Distance (km) Brightness Sun altitude
Rises 00:19:56 0° 203° (SSW) 3,220 7.1 -5.6°
Reaches altitude 10° 00:22:42 10° 218° (SW) 2,299 6.6 -6.0°
Maximum altitude 00:26:39 23° 269° (W) 1,602 5.7 -6.5°
Drops below altitude 10° 00:30:38 10° 321° (NW) 2,312 5.7 -7.1°
Sets 00:33:26 0° 336° (NNW) 3,243 6.3 -7.5°
